Location: Bidart
(43.4376°N, 1.5913°W)
Time: 11:58:20
(UTC+00:00)

USA 229 DEB - Pass Details

Date: 19 April 2026
Orbit: 844 x 1364 km, 63.4° (Epoch: 10 January)

Event Time Altitude Azimuth Distance (km) Brightness Sun altitude
Rises 02:10:25 0° 318° (NW) 4,068 6.9 -28.5°
Reaches altitude 10° 02:13:12 10° 311° (NW) 3,172 6.2 -28.2°
Enters shadow 02:18:33 37° 274° (W) 1,896 4.7 -27.6°
